Shelbyville, IN

11:17 AM EDT on July 25, 2017 (GMT -0400)
Shelbyville Municipal

Weather History for KGEZ - December, 2012

Change the Weather History Date:

Saturday, December 29, 2012

  Actual Average Record
Temperature  
Mean Temperature 30 °F 29 °F  
Max Temperature 33 °F 37 °F 55 °F (2006)
Min Temperature 26 °F 22 °F 15 °F (2000)
Degree Days  
Heating Degree Days 35 36  
Month to date heating degree days 655 959  
Since 1 July heating degree days 1793 2034  
Cooling Degree Days 0 0  
Month to date cooling degree days 0 0  
Year to date cooling degree days 1417 913  
Moisture  
Dew Point 26 °F    
Average Humidity 84    
Maximum Humidity 92    
Minimum Humidity 75    
Precipitation  
Precipitation 0.06 in 0.11 in 0.63 in (2003)
Month to date precipitation 1.88 3.05  
Year to date precipitation 27.58 43.34  
Sea Level Pressure  
Sea Level Pressure 29.88 in    
Wind  
Wind Speed 11 mph (NW)    
Max Wind Speed 24 mph    
Max Gust Speed 29 mph    
Visibility 3 miles    
Events Snow    
T = Trace of Precipitation, MM = Missing Value Source: NWS Daily Summary

Daily Weather History Graph

Daily Weather History Graph

Search for Another Location

Airport or City:

Trip Planner

Search our weather history database for the weather conditions in past years. The results will help you decide how hot, cold, wet, or windy it might be!

Date:

Astronomy

Dec. 29, 2012 Rise Set
Actual Time 8:03 AM EST 5:27 PM EST
Civil Twilight 7:33 AM EST 5:58 PM EST
Nautical Twilight 6:59 AM EST 6:31 PM EST
Astronomical Twilight 6:26 AM EST 7:04 PM EST
Moon 6:59 PM EST (12/29) 8:36 AM EST (12/29)
Length of Visible Light 10h 25m
Length of Day
9h 24m
Full, 98% of the Moon is Illuminated
Dec 29
Full
Jan 4
Last Quarter
Jan 11
New
Jan 18
First Quarter
Jan 26
Full

Hourly Weather History & Observations

Time (EST) Temp. Windchill Dew Point Humidity Pressure Visibility Wind Dir Wind Speed Gust Speed Precip Events Conditions
12:48 AM 30.2 °F 26.7 °F 28.4 °F 93% 29.78 in 1.2 mi North 3.5 mph - 0.00 in Snow Light Snow
12:53 AM 30.9 °F 27.5 °F 28.9 °F 92% 29.80 in 1.5 mi North 3.5 mph - 0.00 in Snow Light Snow
1:08 AM 30.2 °F 25.4 °F 28.4 °F 93% 29.77 in 2.0 mi North 4.6 mph - 0.00 in Snow Light Snow
1:21 AM 30.2 °F 25.4 °F 28.4 °F 93% 29.77 in 1.5 mi North 4.6 mph - 0.00 in Snow Light Snow
1:43 AM 30.2 °F 26.7 °F 28.4 °F 93% 29.76 in 1.2 mi North 3.5 mph - 0.00 in Snow Light Snow
1:53 AM 30.9 °F 25.2 °F 28.0 °F 89% 29.78 in 1.0 mi North 5.8 mph - 0.01 in Snow Light Snow
2:37 AM 30.2 °F 21.3 °F 28.4 °F 93% 29.74 in 1.5 mi NNW 10.4 mph - 0.01 in Snow Light Snow
2:48 AM 30.2 °F 21.3 °F 28.4 °F 93% 29.75 in 2.0 mi North 10.4 mph - 0.01 in Snow Light Snow
2:53 AM 30.9 °F 23.5 °F 28.0 °F 89% 29.77 in 2.5 mi North 8.1 mph - 0.01 in Snow Light Snow
3:07 AM 30.2 °F 23.4 °F 28.4 °F 93% 29.76 in 3.0 mi NNW 6.9 mph - 0.00 in Snow Light Snow
3:16 AM 30.2 °F 22.6 °F 28.4 °F 93% 29.76 in 2.5 mi NNW 8.1 mph - 0.00 in Snow Light Snow
3:25 AM 30.2 °F 21.9 °F 28.4 °F 93% 29.76 in 1.2 mi North 9.2 mph - 0.01 in Snow Light Snow
3:36 AM 30.2 °F 22.6 °F 28.4 °F 93% 29.76 in 1.2 mi North 8.1 mph - 0.01 in Snow Light Snow
3:53 AM 30.9 °F 22.2 °F 28.0 °F 89% 29.78 in 1.0 mi North 10.4 mph - 0.02 in Snow Light Snow
4:24 AM 30.2 °F 21.9 °F 28.4 °F 93% 29.76 in 1.8 mi North 9.2 mph - 0.00 in Snow Light Snow
4:53 AM 30.9 °F 22.8 °F 28.0 °F 89% 29.78 in 1.2 mi NNW 9.2 mph - 0.00 in Snow Light Snow
5:07 AM 30.2 °F 21.9 °F 28.4 °F 93% 29.75 in 1.0 mi NNW 9.2 mph - 0.01 in Snow Light Snow
5:32 AM 30.2 °F 21.9 °F 28.4 °F 93% 29.76 in 1.2 mi NNW 9.2 mph - 0.01 in Snow Light Snow
5:53 AM 30.0 °F 22.4 °F 28.0 °F 92% 29.79 in 1.2 mi NNW 8.1 mph - 0.01 in Snow Light Snow
6:45 AM 30.2 °F 22.6 °F 26.6 °F 86% 29.78 in 2.0 mi NW 8.1 mph - 0.00 in Snow Light Snow
6:53 AM 30.0 °F 23.2 °F 27.0 °F 88% 29.81 in 2.0 mi NW 6.9 mph - 0.00 in Snow Light Snow
7:00 AM 28.4 °F 19.7 °F 26.6 °F 93% 29.79 in 2.5 mi NW 9.2 mph - 0.00 in Snow Light Snow
7:27 AM 28.4 °F 19.7 °F 26.6 °F 93% 29.81 in 3.0 mi NW 9.2 mph - 0.00 in Snow Light Snow
7:53 AM 28.9 °F 19.8 °F 26.1 °F 89% 29.83 in 3.0 mi NW 10.4 mph - 0.00 in Snow Light Snow
8:11 AM 28.4 °F 19.7 °F 26.6 °F 93% 29.82 in 3.0 mi NW 9.2 mph - 0.00 in   Overcast
8:49 AM 30.2 °F 20.8 °F 26.6 °F 86% 29.83 in 3.0 mi NW 11.5 mph - 0.00 in   Overcast
8:53 AM 30.0 °F 20.5 °F 26.1 °F 85% 29.86 in 3.0 mi NW 11.5 mph - 0.00 in   Overcast
9:23 AM 30.2 °F 21.3 °F 26.6 °F 86% 29.84 in 3.0 mi NW 10.4 mph - N/A   Haze
9:53 AM 30.9 °F 22.8 °F 27.0 °F 85% 29.89 in 3.0 mi NW 9.2 mph - N/A   Overcast
10:05 AM 30.2 °F 21.3 °F 26.6 °F 86% 29.87 in 2.5 mi NW 10.4 mph - N/A   Overcast
10:48 AM 32.0 °F 24.8 °F 26.6 °F 80% 29.90 in 2.5 mi WNW 8.1 mph - N/A   Haze
10:53 AM 32.0 °F 24.8 °F 27.0 °F 82% 29.92 in 2.5 mi WNW 8.1 mph - N/A   Haze
11:29 AM 32.0 °F 24.8 °F 28.4 °F 87% 29.90 in 2.5 mi West 8.1 mph - N/A   Overcast
11:53 AM 33.1 °F 24.9 °F 28.0 °F 82% 29.92 in 2.0 mi WNW 10.4 mph - 0.00 in Snow Light Snow
12:10 PM 33.8 °F 24.8 °F 28.4 °F 81% 29.89 in 3.0 mi West 12.7 mph - 0.00 in   Haze
12:53 PM 33.1 °F 24.9 °F 28.0 °F 82% 29.92 in 5.0 mi WNW 10.4 mph - 0.00 in   Haze
1:12 PM 33.8 °F 26.4 °F 28.4 °F 81% 29.89 in 2.0 mi West 9.2 mph - 0.00 in Snow Light Snow
1:25 PM 33.8 °F 26.4 °F 28.4 °F 81% 29.89 in 4.0 mi West 9.2 mph - 0.00 in Snow Light Snow
1:29 PM 33.8 °F 27.0 °F 28.4 °F 81% 29.89 in 1.8 mi WNW 8.1 mph - 0.00 in Snow Light Snow
1:37 PM 33.8 °F 27.0 °F 28.4 °F 81% 29.89 in 1.0 mi West 8.1 mph - 0.01 in Snow Light Snow
1:53 PM 33.1 °F 23.4 °F 28.0 °F 82% 29.92 in 2.0 mi WNW 13.8 mph - 0.01 in Snow Light Snow
2:00 PM 33.8 °F 24.8 °F 28.4 °F 81% 29.90 in 3.0 mi West 12.7 mph - 0.00 in Snow Light Snow
2:07 PM 33.8 °F 23.2 °F 26.6 °F 75% 29.90 in 1.8 mi WNW 17.3 mph - 0.00 in Snow Light Snow
2:19 PM 32.0 °F 20.1 °F 26.6 °F 80% 29.91 in 2.0 mi WNW 19.6 mph - 0.00 in Snow Light Snow
2:33 PM 32.0 °F 21.2 °F 26.6 °F 80% 29.91 in 2.0 mi WNW 16.1 mph - 0.00 in Snow Light Snow
2:49 PM 30.2 °F 18.5 °F 26.6 °F 86% 29.92 in 1.8 mi WNW 17.3 mph 27.6 mph 0.00 in Snow Light Snow
2:53 PM 30.9 °F 18.1 °F 25.0 °F 79% 29.95 in 1.8 mi WNW 21.9 mph 28.8 mph 0.00 in Snow Light Snow
3:09 PM 30.2 °F 19.3 °F 24.8 °F 80% 29.94 in 2.5 mi WNW 15.0 mph - 0.00 in Snow Light Snow
3:17 PM 30.2 °F 19.8 °F 24.8 °F 80% 29.94 in 3.0 mi West 13.8 mph 24.2 mph 0.00 in Snow Light Snow
3:53 PM 30.0 °F 19.5 °F 24.1 °F 79% 29.99 in 4.0 mi WNW 13.8 mph - 0.00 in Snow Light Snow
4:53 PM 28.9 °F 18.6 °F 23.0 °F 78% 30.02 in 5.0 mi WNW 12.7 mph - 0.00 in   Haze
5:53 PM 28.0 °F 15.7 °F 19.9 °F 72% 30.06 in 7.0 mi WNW 17.3 mph 26.5 mph 0.00 in Snow Light Snow
6:53 PM 27.0 °F 15.2 °F 19.9 °F 75% 30.10 in 10.0 mi WNW 15.0 mph - 0.00 in   Overcast
7:53 PM 27.0 °F 16.1 °F 19.0 °F 72% 30.13 in 10.0 mi West 12.7 mph - N/A   Overcast
8:53 PM 27.0 °F 17.3 °F 19.0 °F 72% 30.16 in 10.0 mi West 10.4 mph - N/A   Overcast
9:53 PM 27.0 °F 18.0 °F 19.0 °F 72% 30.18 in 10.0 mi West 9.2 mph - N/A   Overcast
10:53 PM 26.1 °F 14.0 °F 19.0 °F 75% 30.22 in 10.0 mi WNW 15.0 mph - N/A   Overcast
11:53 PM 26.1 °F 14.5 °F 18.0 °F 71% 30.24 in 10.0 mi WNW 13.8 mph - N/A   Overcast